Monclova, OH

9:03 AM EDT on September 26, 2016 (GMT -0400)
Toledo Express

Weather History for KTOL - February, 2012

Change the Weather History Date:

Thursday, February 23, 2012

  Actual Average Record
Temperature  
Mean Temperature 36 °F 30 °F  
Max Temperature 41 °F 38 °F 65 °F (2000)
Min Temperature 31 °F 22 °F -8 °F (1978)
Degree Days  
Heating Degree Days 29 35  
Month to date heating degree days 751 859  
Since 1 July heating degree days 3847 4408  
Cooling Degree Days 0 0  
Month to date cooling degree days 0 0  
Year to date cooling degree days 0 0  
Moisture  
Dew Point 32 °F    
Average Humidity 87    
Maximum Humidity 100    
Minimum Humidity 73    
Precipitation  
Precipitation 0.30 in 0.08 in 0.94 in (1975)
Month to date precipitation 1.12 1.66  
Year to date precipitation 3.54 3.71  
Snow  
Snow 1.00 in 0.40 in - ()
Month to date snowfall 5.4 8.0  
Since 1 July snowfall 16.8 29.1  
Snow Depth T in    
Sea Level Pressure  
Sea Level Pressure 29.53 in    
Wind  
Wind Speed 7 mph (SE)    
Max Wind Speed 15 mph    
Max Gust Speed 18 mph    
Visibility 3 miles    
Events Fog , Rain , Snow    
T = Trace of Precipitation, MM = Missing Value Source: NWS Daily Summary

Daily Weather History Graph

Daily Weather History Graph

Search for Another Location

Airport or City:

Trip Planner

Search our weather history database for the weather conditions in past years. The results will help you decide how hot, cold, wet, or windy it might be!

Date:

Astronomy

Feb. 23, 2012 Rise Set
Actual Time 7:19 AM EST 6:18 PM EST
Civil Twilight 6:51 AM EST 6:46 PM EST
Nautical Twilight 6:19 AM EST 7:18 PM EST
Astronomical Twilight 5:47 AM EST 7:50 PM EST
Moon 7:43 AM EST (2/23) 8:25 PM EST (2/23)
Length of Visible Light 11h 54m
Length of Day
10h 58m
Waxing Crescent, 3% of the Moon is Illuminated
Feb 23
Waxing Crescent
Feb 29
First Quarter
Mar 8
Full
Mar 14
Last Quarter
Mar 22
New

Hourly Weather History & Observations

Time (EST) Temp. Windchill Dew Point Humidity Pressure Visibility Wind Dir Wind Speed Gust Speed Precip Events Conditions
12:26 AM 33.8 °F - 32.0 °F 93% 29.45 in 4.0 mi Calm Calm - N/A   Overcast
12:40 AM 32.0 °F 26.4 °F 30.2 °F 93% 29.45 in 1.5 mi SSW 5.8 mph - N/A   Overcast
12:44 AM 32.0 °F 26.4 °F 30.2 °F 93% 29.45 in 0.8 mi South 5.8 mph - N/A   Overcast
12:52 AM 32.0 °F 28.7 °F 32.0 °F 100% 29.47 in 0.5 mi South 3.5 mph - N/A Fog Fog
1:16 AM 33.8 °F 28.6 °F 32.0 °F 93% 29.45 in 1.0 mi South 5.8 mph - N/A   Overcast
1:44 AM 33.8 °F 28.6 °F 32.0 °F 93% 29.46 in 0.8 mi SSW 5.8 mph - N/A   Overcast
1:52 AM 33.1 °F 27.7 °F 32.0 °F 96% 29.48 in 1.0 mi SW 5.8 mph - N/A   Overcast
2:06 AM 33.8 °F 29.6 °F 32.0 °F 93% 29.46 in 1.8 mi SSW 4.6 mph - N/A   Overcast
2:14 AM 33.8 °F 29.6 °F 32.0 °F 93% 29.46 in 2.0 mi SSW 4.6 mph - N/A   Overcast
2:35 AM 33.8 °F 28.6 °F 32.0 °F 93% 29.46 in 1.8 mi SW 5.8 mph - N/A   Overcast
2:52 AM 33.1 °F 27.7 °F 32.0 °F 96% 29.48 in 1.8 mi SW 5.8 mph - N/A   Overcast
3:02 AM 33.8 °F 27.7 °F 32.0 °F 93% 29.47 in 0.8 mi SW 6.9 mph - N/A   Overcast
3:26 AM 33.8 °F 26.4 °F 32.0 °F 93% 29.47 in 1.2 mi WSW 9.2 mph - N/A   Overcast
3:37 AM 33.8 °F 26.4 °F 32.0 °F 93% 29.48 in 1.5 mi WNW 9.2 mph - N/A   Overcast
3:45 AM 32.0 °F 24.8 °F 32.0 °F 100% 29.48 in 1.0 mi West 8.1 mph - N/A   Overcast
3:52 AM 32.0 °F 24.2 °F 32.0 °F 100% 29.50 in 1.0 mi West 9.2 mph - N/A   Overcast
4:08 AM 32.0 °F 23.6 °F 30.2 °F 93% 29.50 in 2.0 mi WSW 10.4 mph - N/A   Overcast
4:31 AM 32.0 °F 24.8 °F 30.2 °F 93% 29.50 in 1.2 mi West 8.1 mph - N/A   Overcast
4:52 AM 32.0 °F 24.8 °F 30.9 °F 96% 29.54 in 0.5 mi WSW 8.1 mph - N/A Fog Fog
5:41 AM 32.0 °F 25.6 °F 32.0 °F 100% 29.54 in 1.2 mi West 6.9 mph - N/A   Overcast
5:50 AM 32.0 °F 25.6 °F 32.0 °F 100% 29.54 in 2.0 mi West 6.9 mph - N/A   Overcast
5:52 AM 32.0 °F 25.6 °F 32.0 °F 100% 29.56 in 2.5 mi West 6.9 mph - N/A   Overcast
5:56 AM 32.0 °F 25.6 °F 30.2 °F 93% 29.54 in 4.0 mi West 6.9 mph - N/A   Overcast
6:52 AM 32.0 °F 26.4 °F 30.0 °F 92% 29.58 in 7.0 mi West 5.8 mph - N/A   Mostly Cloudy
7:03 AM 32.0 °F 27.5 °F 28.4 °F 87% 29.56 in 7.0 mi WSW 4.6 mph - N/A   Scattered Clouds
7:52 AM 30.9 °F - 28.9 °F 92% 29.60 in 2.5 mi Calm Calm - N/A   Scattered Clouds
8:40 AM 33.8 °F 30.8 °F 30.2 °F 87% 29.60 in 4.0 mi SSW 3.5 mph - N/A   Partly Cloudy
8:52 AM 34.0 °F - 32.0 °F 92% 29.62 in 4.0 mi Calm Calm - N/A   Clear
9:52 AM 37.0 °F - 30.9 °F 79% 29.61 in 7.0 mi Calm Calm - N/A   Partly Cloudy
10:52 AM 37.9 °F - 32.0 °F 79% 29.63 in 8.0 mi Calm Calm - N/A   Clear
11:52 AM 37.9 °F 34.4 °F 33.1 °F 83% 29.63 in 7.0 mi SSW 4.6 mph - N/A   Scattered Clouds
12:52 PM 39.0 °F 33.4 °F 32.0 °F 76% 29.66 in 8.0 mi South 8.1 mph - N/A   Scattered Clouds
1:52 PM 39.9 °F 35.8 °F 32.0 °F 73% 29.62 in 9.0 mi South 5.8 mph - N/A   Partly Cloudy
2:52 PM 39.9 °F 37.8 °F 33.1 °F 77% 29.60 in 8.0 mi ESE 3.5 mph - N/A   Overcast
3:52 PM 41.0 °F 38.0 °F 33.1 °F 73% 29.59 in 9.0 mi East 4.6 mph - N/A   Overcast
4:52 PM 39.9 °F 34.5 °F 34.0 °F 79% 29.58 in 7.0 mi ENE 8.1 mph - 0.00 in Rain Light Rain
5:52 PM 39.9 °F 35.1 °F 34.0 °F 79% 29.56 in 7.0 mi ENE 6.9 mph - 0.00 in Rain Light Rain
6:29 PM 39.2 °F 34.2 °F 33.8 °F 81% 29.55 in 7.0 mi East 6.9 mph - 0.00 in   Overcast
6:40 PM 39.2 °F 34.2 °F 33.8 °F 81% 29.55 in 7.0 mi East 6.9 mph - 0.00 in   Overcast
6:52 PM 39.0 °F 32.8 °F 34.0 °F 82% 29.58 in 7.0 mi ENE 9.2 mph - 0.00 in   Overcast
7:05 PM 39.2 °F 33.0 °F 33.8 °F 81% 29.56 in 6.0 mi ENE 9.2 mph - 0.00 in Rain Light Rain
7:41 PM 37.4 °F 29.3 °F 33.8 °F 87% 29.55 in 6.0 mi ENE 12.7 mph - 0.01 in Rain Light Rain
7:52 PM 37.0 °F 28.9 °F 34.0 °F 89% 29.56 in 5.0 mi ENE 12.7 mph - 0.01 in   Overcast
8:35 PM 35.6 °F 28.0 °F 33.8 °F 93% 29.53 in 5.0 mi ENE 10.4 mph - 0.00 in Rain Light Rain
8:52 PM 35.1 °F 26.9 °F 33.1 °F 92% 29.55 in 3.0 mi ENE 11.5 mph - 0.02 in Rain Rain
9:18 PM 33.8 °F 28.6 °F 32.0 °F 93% 29.56 in 3.0 mi ENE 5.8 mph - 0.04 in Snow Light Snow
9:26 PM 33.8 °F 25.8 °F 32.0 °F 93% 29.55 in 1.8 mi ENE 10.4 mph - 0.06 in Snow Light Snow
9:37 PM 33.8 °F 27.0 °F 30.2 °F 87% 29.56 in 1.0 mi ENE 8.1 mph - 0.09 in Snow Light Snow
9:49 PM 32.0 °F 23.6 °F 30.2 °F 93% 29.53 in 0.8 mi ENE 10.4 mph - 0.12 in Snow Light Snow
9:52 PM 32.0 °F 23.6 °F 30.9 °F 96% 29.55 in 0.8 mi ENE 10.4 mph - 0.13 in Snow Light Snow
10:00 PM 32.0 °F 24.8 °F 30.2 °F 93% 29.54 in 0.8 mi ENE 8.1 mph - 0.01 in Snow Light Snow
10:07 PM 32.0 °F 23.6 °F 30.2 °F 93% 29.53 in 1.0 mi ENE 10.4 mph - 0.02 in Snow Light Snow
10:19 PM 32.0 °F 22.5 °F 30.2 °F 93% 29.53 in 0.8 mi ENE 12.7 mph - 0.04 in Snow Light Snow
10:28 PM 32.0 °F 23.0 °F 30.2 °F 93% 29.53 in 1.2 mi ENE 11.5 mph - 0.05 in Snow Light Snow
10:52 PM 32.0 °F 23.0 °F 30.9 °F 96% 29.55 in 1.0 mi ENE 11.5 mph - 0.07 in Snow Light Snow
11:03 PM 32.0 °F 23.0 °F 30.2 °F 93% 29.52 in 0.8 mi ENE 11.5 mph - 0.02 in Snow Light Snow
11:17 PM 32.0 °F 23.0 °F 30.2 °F 93% 29.51 in 1.2 mi ENE 11.5 mph - 0.05 in Snow Light Snow
11:33 PM 32.0 °F 22.5 °F 30.2 °F 93% 29.50 in 1.8 mi ENE 12.7 mph - 0.06 in Snow Light Snow
11:40 PM 32.0 °F 23.0 °F 30.2 °F 93% 29.50 in 3.0 mi ENE 11.5 mph - 0.07 in Snow Light Snow
11:52 PM 32.0 °F 23.0 °F 30.9 °F 96% 29.52 in 3.0 mi ENE 11.5 mph - 0.07 in Snow Light Snow